Location: Bommar?jukunta
(16.8353°N, 81.0620°E)
Time: 23:15:39
(UTC+00:00)

Daily predictions for brighter satellites

Satellite Brightness Start Highest point End
(mag) Time Altitude Azimuth Time Altitude Azimuth Time Altitude Azimuth
Thor Agena Rocket 3.8 12:17:40 10° S 12:22:55 81° WSW 12:28:08 10° NNW
Cosmos 2151 2.9 12:20:55 10° N 12:25:02 63° E 12:29:08 10° SSE
AQUARIUS 4.4 12:21:47 10° SSE 12:25:56 43° ENE 12:30:06 10° N
Palapa B4 Rocket 4.4 12:24:45 10° WSW 12:31:34 47° SSE 12:36:02 10° E
Cosmos 1606 Rocket 4.5 12:27:49 10° SSW 12:32:02 53° W 12:36:19 10° N
IRS-1C 4.1 12:27:18 10° SSE 12:32:35 72° ENE 12:37:51 10° N
Cosmos 2227 Rocket 3.7 12:31:29 10° NE 12:34:15 14° ENE 12:37:00 10° E
Cosmos 1743 3.1 12:31:58 10° NNW 12:35:06 53° W 12:38:15 10° S
SJ-12 3.6 12:32:10 10° SSE 12:35:55 77° ENE 12:39:40 10° N
BREEZE-M (TANK) 4.4 12:29:43 10° SSW 12:35:59 23° SE 12:38:47 10° E
Helios 1A Rocket 2.8 12:33:24 10° NNE 12:36:39 44° E 12:39:53 10° S
Cosmos 1076 Rocket 4.4 12:41:40 10° NNE 12:45:20 27° E 12:49:00 10° SE
Star 48 S/N 10038-3 4.3 12:44:04 10° WSW 12:48:22 88° NNW 12:50:02 19° ENE
Hubble Space Telescope 2.1 12:50:35 10° WNW 12:53:42 24° NNW 12:56:01 14° NNE
Cosmos 1655 Rocket 4.1 12:49:12 10° N 12:55:13 52° E 13:01:14 10° SSE
Cosmos 1898 Rocket 3.5 12:50:20 10° SSW 12:55:28 86° WNW 13:00:37 10° NNE
Delta 168 3.8 12:52:14 10° W 12:55:58 51° SSW 13:01:13 10° SE
Cosmos 967 Rocket 4.4 12:49:54 10° SSW 12:56:09 78° ESE 13:02:30 10° NNE
SJ-6F 4.5 12:53:55 10° S 12:57:49 77° WSW 13:01:46 10° NNW
COSMO-SKYMED 1 2.9 12:54:03 10° N 12:58:06 61° WNW 13:02:08 10° SSW
BlueWalker 3 3.9 12:56:14 10° NNE 12:56:46 12° NNE 12:56:46 12° NNE
ATLAS 5 CENTAUR R/B 1.8 12:57:29 10° SSW 12:59:10 19° SSE 13:00:23 15° ESE
Okean 1 2.9 12:57:40 10° S 13:01:17 67° E 13:04:52 10° N
Cosmos 2221 4.1 12:59:05 10° SE 13:00:55 16° ESE 13:00:55 16° ESE
Meteor 1-26 Rocket 4.1 12:56:46 10° S 13:02:18 81° E 13:07:43 10° N
Cosmos 2237 4.3 12:58:15 10° S 13:03:50 58° ESE 13:08:43 14° NNE
Atlas Centaur 2 2.2 13:02:45 10° SSW 13:05:55 30° SSE 13:07:19 23° ESE
Okean 1-7 Rocket 4.5 13:02:07 10° NNW 13:06:20 50° W 13:10:32 10° SSW
DMSP B5D1-3 4.4 13:04:05 10° NNE 13:09:06 71° ESE 13:14:07 10° S
YAOGAN 1 2.6 13:06:47 10° SSE 13:10:54 51° ENE 13:15:01 10° N
SL-16 R/B 2.8 13:10:07 10° SSE 13:15:13 35° ESE 13:17:01 28° ENE
BREEZE-M DEB (TANK) 3.1 13:09:06 10° NW 13:15:53 52° NE 13:16:53 37° E
Cosmos 1937 Rocket 3.7 13:12:42 10° SSW 13:17:54 72° WNW 13:23:04 10° N
Cosmos 858 Rocket 4.4 13:13:36 10° S 13:18:47 75° ESE 13:22:32 19° NNE
SJ-7 4.0 13:21:52 10° SSE 13:25:32 84° ENE 13:29:14 10° N
Cosmos 1867 4.2 13:20:47 10° N 13:24:50 32° NE 13:24:50 32° NE
Cosmos 2297 Rocket 2.9 13:21:39 10° NNW 13:27:08 54° WSW 13:32:37 10° S
CZ-4C R/B 3.3 13:22:10 10° NNW 13:30:19 55° ENE 13:39:17 10° SE
Ariane H10+ 3.9 13:23:21 10° WSW 13:30:31 28° SSW 13:34:17 13° SE
NOAA 6 4.0 13:25:37 10° SSE 13:30:36 56° ENE 13:35:35 10° N
Cosmos 1607 3.8 13:25:48 10° NNW 13:32:05 80° ENE 13:38:25 10° SSE
Skynet4D Del rocket 4.3 13:28:31 10° W 13:34:21 53° NNW 13:36:46 36° NE
SPOT 1/Viking Rocket 4.4 13:30:29 10° S 13:35:29 51° W 13:40:31 10° NNW
Cosmos 2278 3.8 13:33:21 10° S 13:38:53 54° ESE 13:39:43 49° ENE
OceanSat 1 rocket 4.5 13:34:44 10° SSE 13:39:32 83° ENE 13:44:17 10° N
S3M 4.1 13:35:04 10° SSE 13:41:16 55° E 13:43:02 42° NE
Cosmos 1953 Rocket 4.4 13:37:16 10° NNW 13:41:35 51° W 13:45:53 10° SSW
Cosmos 1812 Rocket 3.8 13:42:34 10° S 13:46:01 54° SSE 13:46:01 54° SSE
H-2A R/B 3.1 13:46:30 10° W 13:47:16 18° WSW 13:47:16 18° WSW
Nadezhda 2 Rocket 4.3 13:43:57 10° N 13:50:01 74° E 13:56:06 10° S
COSMOS 2455 3.5 13:44:40 10° SW 13:50:29 53° WNW 13:54:01 24° N
Intelsat 5-1 Rocket 2.6 13:49:23 10° WNW 13:51:13 42° WNW 13:51:13 42° WNW
ATLAS CENTAUR R/B 3.5 13:50:36 10° WNW 13:52:47 18° WSW 13:54:54 10° SSW
BREEZE-M DEB (TANK) 3.3 13:52:41 10° SW 13:56:21 65° NW 13:58:52 40° NNE
Centaur D-1AR AC-39 2.7 13:52:29 10° WSW 13:56:33 85° SSE 13:58:49 49° ENE
Delta 202 4.1 13:54:10 10° WSW 14:00:07 86° S 14:01:30 62° E
Cosmos 883 Rocket 4.4 13:57:11 10° S 14:02:53 66° ESE 14:02:53 66° ESE
SEDSat Delta rocket 4.0 14:00:48 10° WSW 14:06:51 64° NNW 14:07:10 63° N
Cosmos 2333 Rocket 2.2 14:01:33 10° SSW 14:06:47 76° S 14:06:47 76° S
Cosmos 2360 Rocket 3.2 14:03:15 10° S 14:06:28 33° SSE 14:06:28 33° SSE
Cosmos 2227 Rocket 3.1 14:12:55 10° NNW 14:18:17 46° WSW 14:23:38 10° S
USA 59 Rocket 1.5 14:15:30 10° SW 14:19:36 39° WSW 14:19:36 39° WSW
Cosmos 2219 Rocket 4.5 14:21:24 10° S 14:21:54 12° S 14:21:54 12° S
Cosmos 2322 Rocket 3.3 14:25:54 10° SSW 14:29:24 39° SSW 14:29:24 39° SSW
ATLAS 2A CENTAUR R/B 4.3 14:32:11 10° WNW 14:36:25 27° WNW 14:36:25 27° WNW
SL-16 R/B 4.5 14:55:25 10° WSW 14:58:56 18° WNW 14:58:56 18° WNW
SL-16 R/B 3.9 21:53:52 10° SE 21:58:29 33° E 21:58:29 33° E
Atlas Centaur 2 3.3 22:12:15 54° SE 22:12:15 54° SE 22:18:31 10° SE
USA 238 DEB 4.4 22:23:41 50° NNE 22:25:25 60° ENE 22:33:31 10° SE
USA 238 4.5 22:23:44 49° NNE 22:25:32 59° ENE 22:33:37 10° SE
Ariane H10+ 3.8 22:42:51 21° S 22:42:51 21° S 22:45:04 10° SE
Cosmos 1980 Rocket 4.1 22:39:30 14° NNE 22:42:59 24° ENE 22:47:24 10° ESE
ATLAS 2AS CENTAUR RB 3.3 22:45:27 51° SW 22:47:19 67° S 23:24:10 10° E
ATLAS 2AS CENTAUR RB 3.3 22:45:27 51° SW 22:47:19 67° S 23:24:09 10° E
ATLAS 2AS CENTAUR RB 3.3 22:45:26 51° SW 22:47:19 67° S 23:24:10 10° E
Cosmos 489 Rocket 4.3 22:45:46 10° SSW 22:52:05 82° WNW 22:58:23 10° N
Nadezhda 4 Rocket 4.4 22:49:04 10° S 22:55:18 64° E 23:01:31 10° NNE
Cosmos 1544 Rocket 3.7 23:02:14 71° ESE 23:02:14 71° ESE 23:06:17 10° S
OAO 3 Rocket 4.0 23:09:04 35° NNE 23:09:04 35° NNE 23:12:12 10° NE
H-2A R/B 3.0 23:08:13 35° NNE 23:08:23 35° NNE 23:15:28 10° E
CZ-3 R/B 3.1 22:59:02 33° WNW 23:08:58 68° NNE 23:16:13 10° E
Cosmos 1503 Rocket 4.3 23:14:17 45° WSW 23:14:17 45° WSW 23:18:38 10° S
ATLAS 2AS CENTAUR R/B 4.4 23:07:29 10° S 23:13:52 34° ESE 23:20:07 10° NE
FUSE 4.1 23:14:11 52° NNW 23:14:31 53° NNW 23:19:45 10° ENE
EPKM 3.7 23:18:00 26° NNE 23:18:00 26° NNE 23:19:37 10° NE
SJ-11-01 4.1 23:14:31 11° N 23:18:58 73° WNW 23:23:35 10° SSW
Cosmos 1354 Rocket 3.9 23:20:51 46° NW 23:22:12 63° WSW 23:27:20 10° S
Cosmos 1892 Rocket 4.0 23:19:19 10° S 23:23:33 60° E 23:27:50 10° NNE
Cosmos 1697 Rocket 3.0 23:23:36 41° W 23:24:12 42° WSW 23:29:30 10° S
Cosmos 1782 4.3 23:33:42 19° SW 23:33:42 19° SW 23:34:58 10° SSW
Centaur AC-119 3.5 23:30:28 35° NW 23:31:49 42° NNW 23:36:52 10° NE
Meteor 2-3 Rocket 3.7 23:32:25 10° SSW 23:38:09 70° W 23:43:52 10° N
IRS-1D 3.5 23:36:12 10° N 23:41:11 59° WNW 23:46:17 10° SSW
SL-16 R/B 3.6 23:38:05 10° SSW 23:42:49 23° W 23:43:33 22° W
USA 59 Rocket 2.8 23:39:25 10° NNE 23:43:15 23° ENE 23:48:07 10° ESE
Cosmos 1627 Rocket 4.4 23:39:25 10° S 23:45:33 89° E 23:51:40 10° N
SL-24 R/B 4.0 23:42:26 10° N 23:47:04 64° WNW 23:51:07 10° SSW
